www.pogodaiklimat.ru

Погода и климат >> Архив погоды >> Россия >> Чукотка >> Илирней


ПОГОДА в Илирнее

  • Прогноз погоды в Илирнее
  • Монитор погоды в Илирнее
  • Климат города

АРХИВ ПОГОДЫ в Илирнее

Время (UTC), дата Ветер
(напр.,м/с)
 
Видим.   Явления Облачность Т
(С)
Тd
(С)
f
(%)
Тe
(С)
Тes
(С)
Комфортность P
(гПа)
Po
(гПа)
Тmin
(С)
Tmax
(С)
R
(мм)
S
(см)
03 16.03 СВ 2
{4}
50 км 6/0
[Ac trans]
-13.5 -16.2 80 -18 -17 1021.7 975.4
06 16.03 штиль 0
{3}
50 км ясно -14.3 -17.8 75 -14 -14 1021.6 975.2
09 16.03 В 1
{2}
20 км 10/0
[Ac und]
-20.1 -22.0 85 -23 -23 1023.5 975.9 -13.1 0.0
12 16.03 штиль 0
{3}
20 км 10/0
[Ac und]
-20.9 -22.8 85 -21 -21 1024.2 976.4
15 16.03 штиль 0
{1}
20 км 10/0
[Ac und]
-21.1 -22.9 85 -21 -21 1024.1 976.3
18 16.03 штиль 0
{3}
20 км 10/0
[Ac und]
-20.6 -23.1 80 -21 -21 1024.1 976.3
21 16.03 штиль 0
{2}
50 км 10/0
[Ac und]
-19.1 -21.0 85 -19 -19 1023.8 976.4 -21.3 20
00 17.03 штиль 0
{2}
50 км 10/8 600 м
[Sc Ac As]
-18.3 -20.2 85 -18 -18 1023.3 976.1
03 17.03 штиль 0
{3}
50 км 10/10 600 м
[Sc]
-16.1 -18.0 85 -16 -16 1022.9 976.1
06 17.03 СВ 1
{4}
50 км 10/6 600 м
[Sc Ac As]
-14.3 -17.0 80 -17 -17 1022.5 976.1
09 17.03 СВ 1
{3}
20 км 10/0
[Ac und]
-14.8 -17.5 80 -17 -17 1023.2 976.6 -14.3
12 17.03 штиль 0
{2}
20 км 10/0
[Ac und]
-14.2 -16.9 80 -14 -14 1023.5 977.0
15 17.03 штиль 0
{2}
20 км 10/0
[Ac und]
-14.8 -17.5 80 -15 -15 1024.2 977.5
18 17.03 штиль 0
{1}
50 км 3/0
[Ac As]
-16.8 -19.4 80 -17 -17 1024.7 977.6
21 17.03 штиль 0
{2}
50 км ясно -15.0 -17.7 80 -15 -14 1025.6 978.9 -14.8 20
00 18.03 штиль 0
{2}
50 км ясно -16.4 -21.4 65 -16 -12 1025.5 978.6
03 18.03 штиль 0
{1}
50 км ясно -12.0 -19.2 55 -12 -9 1024.3 978.1
06 18.03 СВ 3
{5}
50 км ясно -16.0 -19.4 75 -23 -23 1024.8 977.9
09 18.03 штиль 0
{2}
20 км ясно -18.1 -21.4 75 -18 -18 1025.5 978.2 -11.7
12 18.03 штиль 0
{3}
20 км 3/0
[Ac trans]
-18.4 -21.0 80 -18 -18 1026.1 978.8
15 18.03 штиль 0
{1}
20 км ясно -18.4 -21.0 80 -18 -18 1026.3 978.8
18 18.03 штиль 0
{3}
20 км 10/0
[Ac und]
-19.8 -21.7 85 -20 -20 1022.8 975.2
21 18.03 штиль 0
{3}
50 км 10/0
[Ac und]
-17.0 -18.9 85 -17 -17 1021.5 974.6 -19.8 20
00 19.03 ЮВ 1
{2}
50 км 9/0
[Ac trans]
-15.4 -18.1 80 -18 -16 1020.6 974.1
03 19.03 ЮВ 1
{2}
50 км 3/0
[Ac trans]
-14.1 -16.8 80 -17 -14 1020.2 973.8
06 19.03 штиль 0
{1}
50 км ясно -14.5 -17.2 80 -15 -14 1019.8 973.4
09 19.03 штиль 0
{1}
20 км ясно -14.5 -16.9 82 -15 -15 1016.1 976.4 -14.1
12 19.03 штиль 0
{2}
20 км ясно -15.3 -18.7 75 -15 -15 1023.8 977.1
15 19.03 штиль 0
{1}
20 км ясно -15.8 -19.2 75 -16 -16 1025.0 978.1
18 19.03 штиль 0
{2}
50 км ясно -16.1 -19.5 75 -16 -16 1026.1 979.1
21 19.03 штиль 0
{2}
50 км 6/0
[Ac As]
-15.9 -19.3 75 -16 -15 1026.8 979.8 -16.1 20
00 20.03 штиль 0
{1}
50 км 8/0
[Ac trans]
-16.2 -27.2 38 -16 -16 1028.0 979.7
03 20.03 штиль 0
{1}
50 км 3/0
[Ac trans]
-17.3 -23.2 60 -17 -15 1025.9 978.8
06 20.03 СВ 3
{4}
50 км ясно -19.6 -22.9 75 -27 -27 1026.0 978.3
09 20.03 штиль 0
{4}
20 км 3/0
[Ac trans]
-25.5 -27.3 85 -26 -26 1027.4 978.8 -15.9
12 20.03 штиль 0
{2}
20 км ясно -27.8 -30.3 79 -28 -28 1028.0 978.7
15 20.03 штиль 0
{1}
20 км 4/0
[Ac trans]
-28.0 -30.4 80 -28 -28 1027.7 978.4
18 20.03 штиль 0 50 км 10/0
[Ac und]
-26.9 -29.3 80 -27 -27 1027.0 978.0
21 20.03 штиль 0 50 км слабый снег 10/0
[As op]
-26.3 -28.0 85 -26 -26 1026.9 978.1 -28.1 0.0 20
00 21.03 штиль 0
{1}
50 км {снег} 4/0
[Ac trans]
-20.3 -22.8 80 -20 -17 1025.1 977.4
03 21.03 штиль 0
{1}
50 км 10/0
[Ac und]
-17.1 -19.7 80 -17 -16 1023.5 976.5
06 21.03 штиль 0
{2}
50 км 10/0
[Ac und]
-17.9 -20.5 80 -18 -18 1023.6 976.4
09 21.03 штиль 0
{2}
20 км 10/0
[Ac und]
-19.8 -22.4 80 -20 -20 1024.4 976.8 -17.1 0.0
12 21.03 штиль 0
{1}
20 км 10/0
[Ac und]
-23.3 -25.8 80 -23 -23 1025.5 977.3
15 21.03 штиль 0
{1}
20 км 10/0
[Ac und]
-25.8 -28.2 80 -26 -26 1025.9 977.3
18 21.03 штиль 0
{2}
20 км 10/0
[Ac und]
-27.4 -29.8 80 -27 -27 1026.0 977.0
21 21.03 штиль 0
{2}
50 км 10/0
[Ac und]
-28.5 -30.8 80 -29 -28 1025.8 976.6 -28.5 20
00 22.03 штиль 0
{2}
50 км ясно -18.5 -23.4 65 -19 -14 1025.0 977.7
03 22.03 ЮВ 1
{2}
50 км ясно -15.0 -21.0 60 -18 -14 1024.0 977.3
06 22.03 СВ 2
{3}
50 км ясно -16.5 -21.5 65 -22 -21 1024.1 977.2
09 22.03 штиль 0
{3}
20 км 3/0
[Ac trans]
-19.7 -22.3 80 -20 -20 1025.2 977.5 -14.6
12 22.03 штиль 0
{3}
20 км ясно -28.7 -30.5 84 -29 -29 1028.1 978.6
15 22.03 штиль 0
{1}
20 км ясно -28.2 -30.0 84 -28 -28 1027.8 978.5
18 22.03 штиль 0 50 км ясно -28.0 -29.8 84 -28 -28 1027.8 978.5
21 22.03 штиль 0
{1}
50 км ясно -25.5 -28.0 79 -26 -24 1026.9 978.3 -28.7 20

 

Местоположение метеостанции Илирней (Чукотка, Россия): широта 67.25 долгота 167.90 высота над уровнем моря 354 м.

В архиве по умолчанию представлена погода в Илирнее за последнюю неделю. Архивные данные за месяц целиком и за предыдущие месяцы, начиная с января 2011 года, Вы можете получить, выбрав интересующий диапазон дат из раскрывающегося списка и нажав кнопку "Ввод!".

Внимание! Время в таблицах - всемирное. Для получения местного времени необходимо прибавить поправку, которая в Илирнее равна 12 ч.

Смотрите также архив погоды в соседних городах и на ближайших метеорологических станциях:

Погода в Билибино (Чукотка, Россия) (109 км)
Погода в Баимке (Чукотка, Россия) (180 км)
Погода на Островном (Чукотка, Россия) (187 км)
Погода в Чауне (Чукотка, Россия) (215 км)
Погода в Эньмувееме (Чукотка, Россия) (255 км)
Погода в Раучуе (Чукотка, Россия) (257 км)
Погода в Майской (Чукотка, Россия) (276 км)
Погода в Певеке (Чукотка, Россия) (288 км)
Погода в 21 км (Чукотка, Россия) (290 км)
Погода в Комсомольской (Чукотка, Россия) (291 км)

Пояснения к столбцам:

Ветер - указаны скорость ветра в м/с - средняя за 10 мин, порывы в срок и между сроками (в фигурных скобках) и направление, откуда дует ветер: С - северный, СВ - северо-восточный, В - восточный, ЮВ - юго-восточный, Ю - южный, ЮЗ - юго-западный, З - западный, СЗ - северо-западный.
Видимость - горизонтальная дальность видимости в метрах или километрах. При видимости от 1 до 10 км при отсутствии осадков обычно наблюдается дымка, при ухудшении видимости до 1 км и менее - туман. В сухую погоду видимость может ухудшаться дымом, пылью или мглою.
Явления - указаны атмосферные явления, наблюдавшиеся в срок или в последний час перед сроком; фигурными скобками обозначены явления, наблюдавшиеся между сроками (за 1-3 часа до срока); квадратными скобками обозначены град или гололедные отложения с указанием их диаметра в мм.
Облачность - указаны через наклонную черту общая и нижняя облачность в баллах и высота нижней границы облаков в метрах; квадратными скобками обозначены формы облаков: Ci - перистые, Cs - перисто-слоистые, Cc - перисто-кучевые, Ac - высококучевые, As - высокослоистые, Sc - слоисто-кучевые, Ns - слоисто-дождевые, Cu - кучевые, Cb - кучево-дождевые. Подробнее классификацию облаков см. в Атласе облаков (PDF).
T - Температура воздуха - температура, измеренная на высоте 2 м над землей.
Td - Температура точки росы - температура, при понижении до которой содержащийся в воздухе водяной пар достигнет насыщения.
f - Относительная влажность воздуха - влажноcть воздуха, измеренная на высоте 2 м над землей.
Te - Эффективная температура - температура, которую ощущает одетый по сезону человек в тени. Характеристика душности погоды. При расчете учитывается влияние влажности воздуха и скорости ветра на теплоощущения человека.
Tes - Эффективная температура на солнце - температура, которую ощущает человек, с поправкой на солнечный нагрев. Характеристика знойности погоды. Зависит от высоты солнца над горизонтом, облачности и скорости ветра. Ночью, в пасмурную погоду, а также при ветре 12 м/с и более поправка равна нулю.
P - Атмосферное давление - приведенное к уровню моря атмосферное давление.
Po - Атмосферное давление - измеренное на уровне метеостанции атмосферное давление.
Tmin - Минимальная температура - минимум температуры воздуха на высоте 2 м над землей.
Tmax - Максимальная температура - максимум температуры воздуха на высоте 2 м над землей.
R - Количество осадков - Количество выпавших осадков, мм. При наведении курсора мыши на число - период времени, за который выпало указанное количество осадков.
S - Снежный покров - Высота снежного покрова, см. При наведении курсора мыши на число - состояние снежного покрова и степень покрытия местности в баллах.